Regional Weather Roundup
Issued by NWS

Home | Current Version | Previous Version | Text Only | Print | Product List | Glossary Off
Versions: 1 2 3 4 5 6 7 8 9 10 11 12 13 14 15 16 17 18 19 20 21 22 23 24 25 26 27

000
ASUS45 KBOU 280407
RWRCO

WEATHER ROUNDUP FOR COLORADO
NATIONAL WEATHER SERVICE DENVER/BOULDER CO
1000 PM MDT WED JUL 27 2016

NOTE: "FAIR" INDICATES FEW OR NO CLOUDS BELOW 12000 FEET WITH NO
SIGNIFICANT WEATHER AND/OR OBSTRUCTIONS TO VISIBILITY.

COZ001>005-013-030-031-280500-
...NORTHWEST COLORADO...

CITY           SKY/WX    TMP DP  RH WIND       PRES   REMARKS
CRAIG          FAIR      61  37  41 SE3       30.21R
HAYDEN         FAIR      68  27  21 SW6       30.24R
MEEKER         FAIR      67  38  34 CALM      30.23R
MOUNT WERNER   NOT AVBL
STEAMBOAT SPGS FAIR      66  32  28 CALM      30.26S
WALDEN         FAIR      63  23  22 CALM      30.40S
$$

COZ006>008-011-280500-
...WEST CENTRAL VALLEYS...

CITY           SKY/WX    TMP DP  RH WIND       PRES   REMARKS
GRAND JUNCTION FAIR      80  25  13 NE5       30.05R
MONTROSE       FAIR      77  41  27 SE9       30.17R
EAGLE          FAIR      72  32  23 E8        30.27R
RIFLE          FAIR      76  26  15 S9        30.14R
DELTA          NOT AVBL
NUCLA          NOT AVBL
$$

COZ017>023-064>068-280500-
...SOUTHWEST COLORADO...

CITY           SKY/WX    TMP DP  RH WIND       PRES   REMARKS
DURANGO        FAIR      71  21  15 NE3       30.22R
CORTEZ         FAIR      70  44  39 NE7       30.16R
PAGOSA SPRINGS FAIR      74  21  13 CALM      30.32R
TELLURIDE      FAIR      65  29  25 SE6       30.51R
WOLF CREEK PAS FAIR      55  28  35 N13       30.74R
$$

COZ009-010-012-014-032>034-037-058>063-280500-
...CENTRAL COLORADO...

CITY           SKY/WX    TMP DP  RH WIND       PRES   REMARKS
ASPEN          FAIR      61  38  42 S12       30.37R
BUENA VISTA    FAIR      65  27  23 SW5       30.38R
COPPER MTN     FAIR      59  14  17 NW3       30.75S
BERTHOUD PASS  FAIR      46  32  57 E5        30.79S
COTTONWOOD PAS FAIR      70  14  11 CALM      30.56R
GUNNISON       FAIR      68  37  32 E6        30.38R
KREMMLING      FAIR      59  32  36 CALM      30.34R
LEADVILLE      MOCLDY    56  27  32 NE5       30.55R
MONARCH PASS   FAIR      55  32  41 NE14      30.83R
SALIDA         FAIR      76  36  23 E5        30.42R
SUNLIGHT       NOT AVBL
WILKERSON PASS FAIR      57  34  41 E6        30.71R
$$

COZ069>075-280500-
...SAN LUIS VALLEY/SANGRE DE CRISTO MOUNTAINS...

CITY           SKY/WX    TMP DP  RH WIND       PRES   REMARKS
ALAMOSA        FAIR      73  39  29 E13       30.30R
LA VETA PASS   FAIR      61  37  41 NE12      30.57R
SAGUACHE       FAIR      68  36  30 N10       30.36R
$$

COZ035-036-038>040-280500-
...NORTHERN COLORADO FRONT RANGE...

CITY           SKY/WX    TMP DP  RH WIND       PRES   REMARKS
DENVER INTL AP MOCLDY    72  57  59 E15       30.20R
DMNS CITY PARK   N/A     75  56  50 N6        30.20R
AURORA         MOCLDY    74  51  45 E7        30.22R
FRONT RANGE AP NOT AVBL
ERIE MUNI ARPT FAIR      76  51  42 NE6       30.20R
BOULDER MUN AP FAIR      77  54  44 SE3       30.22R
CENTENNIAL     MOCLDY    76  51  41 SE13      30.23R
BROOMFIELD     PTCLDY    77  54  44 NE8       30.24R
LONGMONT       NOT AVBL
$$

COZ041-046-047-076>085-087-088-280500-
...PIKES PEAK/PALMER DIVIDE AND SOUTHERN FOOTHILLS...

CITY           SKY/WX    TMP DP  RH WIND       PRES   REMARKS
COLO. SPRINGS  FAIR      73  54  51 E7        30.28R
A. F. ACADEMY  FAIR      73  53  49 SE16      30.29R
SCHRIEVER AFB  NOT AVBL
ELLICOTT       FAIR     N/A N/A N/A SE9       30.26R
FALCON         NOT AVBL
FORT CARSON    FAIR      73  52  48 CALM      30.24R
LIMON          LGT RAIN  72  60  66 SE13      30.23R
MONUMENT HILL  FAIR      66  52  59 S16       30.33R
TRINIDAD       NOT AVBL
$$

COZ042>045-048>051-090-091-280500-
...NORTHEAST COLORADO...

CITY           SKY/WX    TMP DP  RH WIND       PRES   REMARKS
GREELEY ARPT   FAIR      70  57  64 NE6       30.19R
AKRON          FAIR      70  59  68 E13       30.17R
BURLINGTON     TSTM      72  62  71 S10       30.16R
WRAY           FAIR      79  57  47 SE3G18    30.09F
STERLING       NOT AVBL
HOLYOKE        NOT AVBL
FORT MORGAN    NOT AVBL
$$

COZ086-089-092>099-280500-
...SOUTHEAST COLORADO...

CITY           SKY/WX    TMP DP  RH WIND       PRES   REMARKS
PUEBLO         FAIR      80  57  45 E8        30.12R
LA JUNTA       FAIR      81  58  45 SE13G23   30.11R
LAMAR          FAIR      76  59  55 E5        30.09R
SPRINGFIELD      N/A     65  60  84 SW8       30.15R
$$




USA.gov is the U.S. government's official web portal to all federal, state and local government web resources and services.